Weather History for Ireland West Airport Knock, Ireland

Change the Weather History Date:

Tuesday, April 23, 2013

  Actual Average Record
Temperature  
Mean Temperature 50 °F -  
Max Temperature 55 °F - - ()
Min Temperature 44 °F - - ()
Degree Days  
Heating Degree Days 16    
Moisture  
Dew Point 43 °F    
Average Humidity 76    
Maximum Humidity 100    
Minimum Humidity 58    
Precipitation  
Precipitation 0.02 in - - ()
Sea Level Pressure  
Sea Level Pressure 30.06 in    
Wind  
Wind Speed 12 mph ()    
Max Wind Speed 18 mph    
Max Gust Speed -    
Visibility 6.3 miles    
Events Rain    
T = Trace of Precipitation, MM = Missing Value Source: Averaged Metar Reports

Daily Weather History Graph

Daily Weather History Graph

Search for Another Location

Airport:

Trip Planner

Search our weather history database for the weather conditions in past years. The results will help you decide how hot, cold, wet, or windy it might be!

Date:

Astronomy

Apr. 23, 2013 Rise Set
Actual Time 6:16 AM IST 8:52 PM IST
Civil Twilight 5:36 AM IST 9:31 PM IST
Nautical Twilight 4:46 AM IST 10:22 PM IST
Astronomical Twilight 3:43 AM IST 11:26 PM IST
Moon 6:14 PM IST (4/23) 4:59 AM IST (4/23)
Length of Visible Light 15h 55m
Length of Day
14h 36m
Waxing Gibbous, 93% of the Moon is Illuminated
Apr 23
Waxing Gibbous
Apr 25
Full
May 2
Last Quarter
May 10
New
May 18
First Quarter

Hourly Weather History & Observations

Time (IST) Temp. Windchill Dew Point Humidity Pressure Visibility Wind Dir Wind Speed Gust Speed Precip Events Conditions
1:00 AM 46 °F - 45 °F 93% 29.95 in - WSW 15.7 mph - -  
6:00 AM 46.4 °F 41.1 °F 44.6 °F 93% 29.98 in 6.2 mi West 11.5 mph - N/A   Mostly Cloudy
7:00 AM 45 °F - 44 °F 95% 30.02 in 9 mi West 13.4 mph - - Rain Light Drizzle
7:00 AM 44.6 °F 38.4 °F 44.6 °F 100% 29.98 in 6.2 mi West 12.7 mph - N/A   Scattered Clouds
7:30 AM 46.4 °F 40.7 °F 44.6 °F 93% 30.01 in 6.2 mi West 12.7 mph - N/A   Scattered Clouds
8:00 AM 46.4 °F 41.1 °F 44.6 °F 93% 30.01 in 6.2 mi WSW 11.5 mph - N/A   Scattered Clouds
8:30 AM 46.4 °F 40.1 °F 42.8 °F 87% 30.01 in 6.2 mi WSW 15.0 mph - N/A   Scattered Clouds
9:00 AM 48.2 °F - 42.8 °F 82% 30.04 in 6.2 mi West 13.8 mph - N/A   Scattered Clouds
9:30 AM 48.2 °F - 42.8 °F 82% 30.04 in 6.2 mi WSW 15.0 mph - N/A   Scattered Clouds
10:00 AM 50.0 °F - 41.0 °F 71% 30.06 in 6.2 mi West 18.4 mph - N/A   Scattered Clouds
10:30 AM 50.0 °F - 42.8 °F 76% 30.06 in 6.2 mi West 15.0 mph - N/A   Mostly Cloudy
11:00 AM 50.0 °F - 42.8 °F 76% 30.06 in 6.2 mi West 13.8 mph - N/A   Mostly Cloudy
11:30 AM 50.0 °F - 42.8 °F 76% 30.06 in 6.2 mi West 13.8 mph - N/A   Mostly Cloudy
12:00 PM 51.8 °F - 41.0 °F 67% 30.06 in 6.2 mi West 18.4 mph - N/A   Mostly Cloudy
12:30 PM 51.8 °F - 42.8 °F 71% 30.06 in 6.2 mi West 16.1 mph - N/A   Mostly Cloudy
1:00 PM 53 °F - 42 °F 58% 30.11 in 22 mi WSW 15.7 mph - -   Mostly Cloudy
1:00 PM 51.8 °F - 42.8 °F 71% 30.09 in 6.2 mi WSW 16.1 mph - N/A   Mostly Cloudy
1:30 PM 53.6 °F - 42.8 °F 67% 30.09 in 6.2 mi West 16.1 mph - N/A   Mostly Cloudy
2:00 PM 53.6 °F - 42.8 °F 67% 30.09 in 6.2 mi West 16.1 mph - N/A   Mostly Cloudy
2:30 PM 55.4 °F - 42.8 °F 63% 30.09 in 6.2 mi West 13.8 mph - N/A   Mostly Cloudy
3:00 PM 55.4 °F - 42.8 °F 63% 30.09 in 6.2 mi West 13.8 mph - N/A   Mostly Cloudy
3:30 PM 55.4 °F - 44.6 °F 67% 30.09 in 6.2 mi West 12.7 mph - N/A   Mostly Cloudy
4:00 PM 55.4 °F - 44.6 °F 67% 30.09 in 6.2 mi West 12.7 mph - N/A   Mostly Cloudy
4:30 PM 53.6 °F - 44.6 °F 72% 30.09 in 6.2 mi West 11.5 mph - N/A   Mostly Cloudy
5:00 PM 53.6 °F - 44.6 °F 72% 30.09 in 6.2 mi West 11.5 mph - N/A   Mostly Cloudy
5:30 PM 53.6 °F - 44.6 °F 72% 30.09 in 6.2 mi West 8.1 mph - N/A   Mostly Cloudy
6:00 PM 53.6 °F - 44.6 °F 72% 30.09 in 6.2 mi SW 9.2 mph - N/A   Mostly Cloudy
7:00 PM 52 °F - 44 °F 67% 30.10 in 25 mi SSW 8.9 mph - -   Mostly Cloudy